Burns, OR

8:41 AM PST on November 18, 2017 (GMT -0800)
Burns Municipal

Weather History for KBNO - September, 2014

Change the Weather History Date:

Wednesday, September 3, 2014

  Actual Average Record
Temperature  
Mean Temperature 55 °F 60 °F  
Max Temperature 73 °F 80 °F 99 °F (2017)
Min Temperature 37 °F 40 °F 27 °F (1980)
Degree Days  
Heating Degree Days 10 6  
Month to date heating degree days 21 16  
Since 1 July heating degree days 86 153  
Cooling Degree Days 0 1  
Month to date cooling degree days 0 3  
Year to date cooling degree days 313 209  
Growing Degree Days 5 (Base 50)    
Moisture  
Dew Point 27 °F    
Average Humidity 45    
Maximum Humidity 76    
Minimum Humidity 14    
Precipitation  
Precipitation 0.00 in 0.01 in 0.13 in (1946)
Month to date precipitation 0.00 0.04  
Year to date precipitation 5.99 7.02  
Sea Level Pressure  
Sea Level Pressure 29.95 in    
Wind  
Wind Speed 8 mph (West)    
Max Wind Speed 17 mph    
Max Gust Speed 24 mph    
Visibility 10 miles    
Events      
T = Trace of Precipitation, MM = Missing Value Source: NWS Daily Summary

Daily Weather History Graph

Daily Weather History Graph

Search for Another Location

Airport or City:

Trip Planner

Search our weather history database for the weather conditions in past years. The results will help you decide how hot, cold, wet, or windy it might be!

Date:

Astronomy

Sep. 03, 2014 Rise Set
Actual Time 6:21 AM PDT 7:27 PM PDT
Civil Twilight 5:52 AM PDT 7:56 PM PDT
Nautical Twilight 5:17 AM PDT 8:31 PM PDT
Astronomical Twilight 4:40 AM PDT 9:08 PM PDT
Moon 3:20 PM PDT (9/3) 12:14 AM PDT (9/3)
Length of Visible Light 14h 04m
Length of Day
13h 05m
Waxing Gibbous, 65% of the Moon is Illuminated
Sep 3
Waxing Gibbous
Sep 8
Full
Sep 15
Last Quarter
Sep 23
New
Oct 1
First Quarter

Hourly Weather History & Observations

Time (PDT) Temp. Windchill Dew Point Humidity Pressure Visibility Wind Dir Wind Speed Gust Speed Precip Events Conditions
12:53 AM 51.1 °F - 39.9 °F 66% 29.83 in 10.0 mi West 6.9 mph - N/A   Clear
1:53 AM 48.0 °F - 39.0 °F 71% 29.85 in 10.0 mi SW 10.4 mph - N/A   Clear
2:53 AM 48.0 °F - 39.0 °F 71% 29.87 in 10.0 mi SSW 9.2 mph - N/A   Clear
3:53 AM 44.1 °F 38.6 °F 37.0 °F 76% 29.89 in 10.0 mi SW 10.4 mph - N/A   Clear
4:53 AM 45.0 °F 41.8 °F 36.0 °F 71% 29.89 in 10.0 mi SW 5.8 mph - N/A   Clear
5:53 AM 41.0 °F 34.7 °F 34.0 °F 76% 29.92 in 10.0 mi WSW 10.4 mph - N/A   Clear
6:53 AM 37.0 °F 31.0 °F 30.9 °F 79% 29.97 in 10.0 mi West 8.1 mph - N/A   Clear
7:53 AM 48.0 °F - 33.1 °F 56% 29.98 in 10.0 mi West 6.9 mph - N/A   Clear
8:53 AM 53.1 °F - 30.0 °F 41% 29.98 in 10.0 mi WSW 9.2 mph - N/A   Clear
9:53 AM 55.9 °F - 26.1 °F 32% 29.99 in 10.0 mi West 8.1 mph - N/A   Clear
10:53 AM 61.0 °F - 21.0 °F 21% 29.98 in 10.0 mi West 8.1 mph - N/A   Clear
11:53 AM 64.0 °F - 19.9 °F 18% 29.97 in 10.0 mi WSW 8.1 mph - N/A   Clear
12:53 PM 66.9 °F - 21.0 °F 17% 29.98 in 10.0 mi Variable 5.8 mph - N/A   Clear
1:53 PM 69.1 °F - 19.9 °F 15% 29.96 in 10.0 mi WSW 12.7 mph - N/A   Clear
2:53 PM 69.1 °F - 21.9 °F 17% 29.95 in 10.0 mi Variable 4.6 mph - N/A   Clear
3:53 PM 72.0 °F - 23.0 °F 16% 29.94 in 10.0 mi West 10.4 mph - N/A   Clear
4:53 PM 71.1 °F - 19.9 °F 14% 29.94 in 10.0 mi WNW 12.7 mph - N/A   Clear
5:53 PM 70.0 °F - 21.0 °F 16% 29.95 in 10.0 mi WNW 11.5 mph 20.7 mph N/A   Clear
6:53 PM 66.9 °F - 19.9 °F 17% 29.97 in 10.0 mi WNW 9.2 mph - N/A   Clear
7:53 PM 54.0 °F - 28.9 °F 38% 29.99 in 10.0 mi NNW 9.2 mph - N/A   Clear
8:53 PM 53.1 °F - 24.1 °F 32% 30.00 in 10.0 mi NNW 8.1 mph - N/A   Clear
9:53 PM 52.0 °F - 27.0 °F 38% 30.01 in 10.0 mi NNE 4.6 mph - N/A   Clear
10:53 PM 46.0 °F 44.8 °F 25.0 °F 44% 30.02 in 10.0 mi South 3.5 mph - N/A   Clear
11:53 PM 44.1 °F 39.5 °F 26.1 °F 49% 30.04 in 10.0 mi SSE 8.1 mph - N/A   Clear